User: anonymous   Login
Location: Aufkirchen
(47.9603°N, 11.3653°E)
Time: 05:37:57
(UTC+02:00)
Language:

Transit 4A - Orbit

View from above orbital plane
View from above orbital plane
View from above satellite
View from above satellite

Ground track
Ground track

The orbit data is extracted from the following two-line orbital elements,

1 00116U 61015A   21125.40832136 -.00000049  00000-0  21190-4 0  9990
2 00116  66.8076 141.1438 0071482 147.8078 212.7396 13.91788568 36614
Epoch (UTC): 05 May 2021 09:47:58
Eccentricity: 0.0071482
inclination: 66.8076°
perigee height: 870 km
apogee height: 974 km
right ascension of ascending node: 141.1438°
argument of perigee: 147.8078°
revolutions per day: 13.91788568
mean anomaly at epoch: 212.7396°
orbit number at epoch: 3661

The dashed part of the orbit path shows where the satellite is in the earth's shadow,  

DLR